Location: Pine Ridge Estates
(42.5164°N, 73.8156°W)
Time: 11:00:58
(UTC+00:00)

ISS - Pass Details

Date: 17 October 2024
Orbit: 407 x 418 km, 51.6° (Epoch: 13 November)

Event Time Altitude Azimuth Distance (km) Brightness Sun altitude
Exits shadow 09:47:50 - 195° (SSW) 1,725 -0.8 -16.1°
Reaches altitude 10° 09:48:35 10° 189° (S) 1,461 -1.1 -16.0°
Maximum altitude 09:51:14 23° 135° (SE) 925 -1.5 -15.5°
Drops below altitude 10° 09:53:53 10° 81° (E) 1,467 0.4 -15.0°
Sets 09:56:14 0° 66° (ENE) 2,331 1.3 -14.6°
